Regional Weather Roundup
Issued by NWS

Home | Current Version | Previous Version | Text Only | Print | Product List | Glossary Off
Versions: 1 2 3 4 5 6 7 8 9 10 11 12 13 14 15 16 17 18 19 20 21 22 23 24 25 26 27 28 29 30 31 32 33 34 35 36 37 38 39 40 41 42 43 44 45 46 47 48 49 50

000
ASUS43 KDMX 181607
RWRIA

WEATHER ROUNDUP FOR IOWA
NATIONAL WEATHER SERVICE DES MOINES IA
1100 AM CDT THU SEP 18 2014

NOTE: "FAIR" INDICATES FEW OR NO CLOUDS BELOW 12,000 FEET WITH NO
SIGNIFICANT WEATHER AND/OR OBSTRUCTIONS TO VISIBILITY.

* - THESE STATIONS ARE NOT NWS STATIONS...THUS NOT UNDER NWS
QUALITY CONTROL.  THEY ALSO DO NOT REPORT WEATHER SUCH
AS PRECIPITATION OR FOG.

IAZ001>003-012>014-020>022-031>034-043>046-181700-
   NORTHWEST IOWA

CITY           SKY/WX    TMP DP  RH WIND       PRES   REMARKS
CARROLL *      PTSUNNY   63  57  82 SE8       30.08S
CHEROKEE *     SUNNY     68  59  73 SE10      30.06S
DENISON *      MOSUNNY   64  59  82 SE8G14    30.05S
LE MARS *      SUNNY     70  59  68 S14       30.04F
ORANGE CITY *  SUNNY     70  55  60 S13G20    30.05S
SHELDON *      SUNNY     68  59  73 S12       30.04F
SIOUX CITY     SUNNY     71  60  68 SE9       30.04R
SPENCER        SUNNY     67  58  72 SE12      30.07S
STORM LAKE *   SUNNY     64  61  88 SE13      30.07S
$$

IAZ055>058-069>071-079>083-090>094-181700-
   SOUTHWEST IOWA

CITY           SKY/WX    TMP DP  RH WIND       PRES   REMARKS
ATLANTIC *     MOSUNNY   66  57  72 SE7       30.06R
AUDUBON *      MOSUNNY   61  57  88 SE6       30.08S
CLARINDA *     SUNNY     68  59  73 E7G14     30.05S
COUNCIL BLFS * MOSUNNY   66  63  88 SE8       30.04R
CRESTON *      MOSUNNY   64  57  77 SE12      30.06S
HARLAN  *      MOSUNNY   66  59  77 SE12      30.08F
LAMONI         MOSUNNY   61  55  81 E9G18     30.07S HAZE
SHENANDOAH *   SUNNY     70  59  68 E8        30.04R
$$

IAZ047>049-059>061-072>074-084-181700-
   CENTRAL IOWA

CITY           SKY/WX    TMP DP  RH WIND       PRES   REMARKS
AMES           MOSUNNY   65  58  78 SE9       30.09F
ANKENY *       PTSUNNY   59  59 100 SE6       30.10S
CHARITON *     MOSUNNY   63  57  82 SE9       30.09F
DES MOINES     PTSUNNY   61  56  83 SE6       30.09F
GRINNELL*      SUNNY     64  54  68 SE8       30.11S
KNOXVILLE *    SUNNY     63  55  77 SE10      30.08F
MARSHALLTOWN   SUNNY     64  54  69 S10       30.11R
PELLA *        SUNNY     68  55  64 SE6       30.11S
PERRY *        PTSUNNY   61  59  94 E7        30.08F
$$

IAZ004>006-015-016-023>025-035-036-181700-
   NORTH CENTRAL IOWA

CITY           SKY/WX    TMP DP  RH WIND       PRES   REMARKS
ALGONA *       SUNNY     66  59  77 S10       30.09S
CLARION *        N/A     68  54  60 SE14      30.09F
ESTHERVILLE    SUNNY     63  57  81 S12       30.08S
FORT DODGE *   MOSUNNY   66  55  68 S12       30.09S
MASON CITY     SUNNY     67  55  65 S14       30.11F
FOREST CITY *  MOSUNNY   68  55  64 SE14      30.10S
IOWA FALLS *     N/A     66  54  63 SE10      30.11F
$$

IAZ007>011-017>019-026>030-037>042-050>054-066-181700-
   NORTHEAST IOWA

CITY           SKY/WX    TMP DP  RH WIND       PRES   REMARKS
CEDAR RAPIDS   SUNNY     65  55  70 SE6       30.12S
CHARLES CITY * SUNNY     66  54  63 S10       30.13S
CLINTON *      SUNNY     66  55  68 E7        30.16S
DECORAH *      SUNNY     63  54  72 VRB5      30.13S
DUBUQUE        SUNNY     63  56  78 NE5       30.15S
MONTICELLO *   SUNNY     68  55  64 VRB6      30.13S
OELWEIN *      SUNNY     68  54  60 SE8       30.13F
WATERLOO       SUNNY     66  54  65 SE9       30.11F
$$

IAZ064-065-067-068-078-181700-
   EAST CENTRAL IOWA

CITY           SKY/WX    TMP DP  RH WIND       PRES   REMARKS
DAVENPORT      SUNNY     67  53  61 VRB3      30.13F
IOWA CITY      SUNNY     66  55  67 E7        30.13S
MT. PLEASANT * SUNNY     70  52  52 E8        30.12R
MUSCATINE *    SUNNY     68  54  60 E7        30.12S
QUAD CITIES    SUNNY     67  53  61 E8        30.12F
$$

IAZ062-063-075>077-085>089-095>099-181700-
   SOUTHEAST IOWA

CITY           SKY/WX    TMP DP  RH WIND       PRES   REMARKS
FAIRFIELD *    SUNNY     66  54  63 E12       30.11S
FORT MADISON * SUNNY     70  55  60 SE6       30.12R
KEOKUK *       SUNNY     66  55  68 SE8       30.10S
OSKALOOSA *      N/A     66  55  68 SE9       30.11S
CENTERVILLE *  MOSUNNY   63  59  88 E8        30.11S
OTTUMWA        SUNNY     65  54  67 SE12      30.09F
WASHINGTON *     N/A     68  55  64 SE10      30.11F
$$

ABBREVIATIONS USED IN REMARKS
   TC - TEMPERATURES IN CELSIUS
  WCI - WIND CHILL INDEX
   HX - HEAT INDEX
  VSB - VISIBILITY
$$



USA.gov is the U.S. government's official web portal to all federal, state and local government web resources and services.